Regional Weather Roundup
Issued by NWS Burlington, VT

Home | Current Version | Previous Version | Text Only | Print | Product List | Glossary On
Versions: 1 2 3 4 5 6 7 8 9 10 11 12 13 14 15 16 17 18 19 20 21 22 23 24 25 26 27 28 29 30 31 32 33 34 35 36 37 38 39 40 41 42 43 44 45 46 47 48 49 50
000
ASUS41 KBTV 031730
RWRBTV
VERMONT REGIONAL WEATHER ROUNDUP
NATIONAL WEATHER SERVICE BURLINGTON VT
100 PM EDT MON AUG 03 2015

NOTE: "FAIR" INDICATES FEW OR NO CLOUDS BELOW 12,000 FEET WITH NO
SIGNIFICANT WEATHER AND/OR OBSTRUCTIONS TO VISIBILITY.

* THESE REPORTS ARE NOT UNDER NWS QUALITY CONTROL AND/OR DO NOT
  REPORT WEATHER SUCH AS PRECIPITATION AND FOG.

VTZ001>019-031800-
_____VERMONT_____


CITY           SKY/WX    TMP DP  RH WIND       PRES   REMARKS
BURLINGTON     MOSUNNY   85  63  47 S14       29.69F
MONTPELIER     MOSUNNY   82  61  48 SW9       29.80R
MORRISVILLE    PTSUNNY   85  62  46 S12G17    29.74S
ST. JOHNSBURY*   N/A     83  62  49 MISG      29.72F
LYNDONVILLE*   PTSUNNY   80  63  55 S9        29.77S
MIDDLEBURY*    FAIR      85  60  43 S12G22    29.73F
SPRINGFIELD    SUNNY     88  63  43 S13G22    29.74F
HIGHGATE*      FAIR      83  64  51 SW7       29.69S
NEWPORT*       FAIR      80  63  55 S7G16     29.73F
BENNINGTON     SUNNY     87  60  40 S12G20    29.77S
SUTTON*          N/A     81 N/A N/A MISG        N/A
GALLUP MILLS*    N/A     79 N/A N/A MISG        N/A
MT. MANSFIELD*   N/A     70 N/A N/A W10         N/A

_____LAKE CHAMPLAIN_____


CITY           SKY/WX    TMP DP  RH WIND       PRES   REMARKS
COLCHESTER RF*   N/A     79  61  53 S9          N/A
DIAMOND ISL*     N/A     81  64  57 SE5G23      N/A

$$

NYZ007-026>031-035-052-083-031800-
_____NORTHERN NEW YORK_____


CITY           SKY/WX    TMP DP  RH WIND       PRES   REMARKS
PLATTSBURGH    SUNNY     84  59  42 SW8G18    29.69S
SARANAC LAKE   PTSUNNY   72  56  57 W14G21    29.77R
MASSENA        CLOUDY    72  62  71 S12       29.71S
OGDENSBURG*    MOSUNNY   73  64  73 SW12      29.71S
POTSDAM*       PTSUNNY   72  64  78 SW15G21   29.73R
STARK FALLS*     N/A     70 N/A N/A S7          N/A
WATERTOWN      LGT RAIN  70  63  78 W10       29.74F
FT DRUM        CLOUDY    73  61  64 SW16      29.74F
ALBANY         PTSUNNY   88  62  41 SE12G22   29.73F
GLENS FALLS    PTSUNNY   83  63  50 S15       29.73F

$$
NHZ002-005-011-031800-
_____NEW HAMPSHIRE_____


CITY           SKY/WX    TMP DP  RH WIND       PRES   REMARKS
LEBANON        SUNNY     86  64  47 S12       29.74F
KEENE          SUNNY     86  63  45 S17G26    29.78S
MT WASHINGTON  MOSUNNY   59  50  72 W21G29      N/A
PLYMOUTH       FAIR      87  67  51 SE7       29.74F HX  90
WHITEFIELD     SUNNY     82  59  45 SW8G20    29.76S

$$

_____REGIONAL QUEBEC LOCATIONS_____


CITY           SKY/WX    TMP DP  RH WIND       PRES   REMARKS
MONTREAL       PTSUNNY   72  64  78 SW17G25   29.69R
QUEBEC CITY    PTSUNNY   73  64  73 W17G23    29.63R
SHERBROOKE     MOSUNNY   79  63  57 W16G22    29.72R

_____REGIONAL ONTARIO LOCATIONS_____


CITY           SKY/WX    TMP DP  RH WIND       PRES   REMARKS
OTTAWA         PTSUNNY   72  64  78 S10G18    29.68S

______KEY______
VSB  - VISIBILITY IN MILES
WCI  - WIND CHILL INDEX
HX   - HEAT INDEX
$$
NNNN



USA.gov is the U.S. government's official web portal to all federal, state and local government web resources and services.